Flag for Germany Weather past 2 weeks in Straubing, Bavaria, Germany

Now
60 °F

Fog.


Feels Like: 60 °F
Forecast: 49 / 73 °F
Wind: 3 mph from East

Location: Straubing

Current Time: Aug 28, 2014 at 2:15:49 PM

Latest Report: Aug 28, 2014 at 1:00 PM


Visibility: 4 mi

Pressure: 30.11 "Hg

Humidity: 82%

Dew point: 55 °F

Location of StraubingLocation

Historic Weather in Straubing — Graph

°F

Straubing temperature yesterday

Maximum temperature yesterday: 66 °F (at 6:00 PM)
Minimum temperature yesterday: 55 °F (at 9:00 AM)
Average temperature yesterday: 60 °F

Past Weeks' High & Low Weather Summary

 TemperatureHumidityPressure
High71 °F (Aug 17, 6:00 PM)99% (Aug 28, 2:00 AM)30.17 "Hg (Aug 28, 2:00 AM)
Low41 °F (Aug 25, 6:00 AM)31% (Aug 21, 6:00 PM)29.68 "Hg (Aug 13, 5:00 PM)
Average59 °F75%29.97 "Hg
* Reported Aug 13 1:00 PM — Aug 28 1:00 PM, Straubing, Weather by CustomWeather, © 2014

Note: Actual official high and low records may vary slightly from our data, if they occured in-between our weather recording intervals... More about our weather records

Advertising

Straubing weather history for previous 24 hours

 ConditionsComfort  
Time TempWeatherWind HumidityBarometerVisibility
1:00 PM
Aug 28
60 °FFog.3 mph82%30.11 "Hg4 mi
12:00 PM56 °FFog.3 mph88%30.14 "Hg4 mi
10:00 AM53 °FLow clouds.2 mph99%30.15 "Hg1 mi
9:00 AM51 °FLow clouds.3 mph99%30.15 "Hg0 mi
8:00 AM50 °FLow clouds.3 mph99%30.14 "Hg0 mi
7:00 AM50 °FLow clouds.2 mph99%30.13 "Hg0 mi
6:00 AM50 °FLow clouds.2 mph99%30.12 "Hg0 mi
4:00 AM48 °FClear.1 mph99%30.11 "Hg2 mi
3:00 AM47 °FClear.2 mph97%30.11 "Hg5 mi
2:00 AM51 °FClear.1 mph99%30.12 "Hg0 mi
1:00 AM52 °FClear.1 mph94%30.11 "Hg9 mi
12:00 AM54 °FClear.2 mph92%30.10 "Hg11 mi
11:00 PM
Aug 27
56 °FPassing clouds.1 mph84%30.09 "Hg19 mi
10:00 PM60 °FOvercast.2 mph72%30.07 "Hg40 mi
9:00 PM60 °FPassing clouds.2 mph75%30.07 "Hg37 mi
8:00 PM61 °FPassing clouds.1 mph74%30.04 "Hg31 mi
7:00 PM63 °FOvercast.1 mph67%30.03 "Hg37 mi
6:00 PM66 °FPartly sunny.2 mph50%30.01 "Hg40 mi
4:00 PM66 °FScattered clouds.2 mph49%30.00 "Hg43 mi
3:00 PM64 °FScattered clouds.3 mph56%29.99 "Hg40 mi
2:00 PM64 °FPassing clouds.5 mph61%29.98 "Hg18 mi
Weather by CustomWeather, © 2014

See weather overviewHow to use our weather pages